Prescott, AZ

10:28 AM MST on February 08, 2016 (GMT -0700)
Love

Weather History for KPRC - October, 2014

Change the Weather History Date:

Thursday, October 9, 2014

  Actual Average Record
Temperature  
Mean Temperature 64 °F 59 °F  
Max Temperature 74 °F 74 °F 87 °F (1991)
Min Temperature 53 °F 44 °F 27 °F (1949)
Degree Days  
Heating Degree Days 1    
Month to date heating degree days 26  
Since 1 July heating degree days 51  
Cooling Degree Days 0    
Month to date cooling degree days 0  
Year to date cooling degree days 1039  
Growing Degree Days 13 (Base 50)    
Moisture  
Dew Point 48 °F    
Average Humidity 65    
Maximum Humidity 93    
Minimum Humidity 33    
Precipitation  
Precipitation 0.07 in 0.03 in 0.42 in (1986)
Month to date precipitation 0.14 0.31  
Year to date precipitation 10.20 11.48  
Sea Level Pressure  
Sea Level Pressure 29.89 in    
Wind  
Wind Speed 7 mph (WNW)    
Max Wind Speed 21 mph    
Max Gust Speed 26 mph    
Visibility 10 miles    
Events Thunderstorm    
T = Trace of Precipitation, MM = Missing Value Source: NWS Daily Summary

Daily Weather History Graph

Daily Weather History Graph

Search for Another Location

Airport or City:

Trip Planner

Search our weather history database for the weather conditions in past years. The results will help you decide how hot, cold, wet, or windy it might be!

Date:

Astronomy

Oct. 09, 2014 Rise Set
Actual Time 6:30 AM MST 6:02 PM MST
Civil Twilight 6:05 AM MST 6:27 PM MST
Nautical Twilight 5:36 AM MST 6:57 PM MST
Astronomical Twilight 5:06 AM MST 7:26 PM MST
Moon 7:06 PM MST (10/9) 7:46 AM MST (10/9)
Length of Visible Light 12h 22m
Length of Day
11h 32m
Full, 98% of the Moon is Illuminated
Oct 9
Full
Oct 15
Last Quarter
Oct 23
New
Oct 30
First Quarter
Nov 6
Full

Hourly Weather History & Observations

Time (MST) Temp. Dew Point Humidity Pressure Visibility Wind Dir Wind Speed Gust Speed Precip Events Conditions
12:53 AM 55.9 °F 52.0 °F 87% 29.83 in 9.0 mi Calm Calm - N/A   Overcast
1:53 AM 55.9 °F 52.0 °F 87% 29.83 in 10.0 mi Calm Calm - N/A   Overcast
2:53 AM 55.9 °F 52.0 °F 87% 29.83 in 10.0 mi NW 3.5 mph - N/A   Overcast
3:53 AM 55.0 °F 52.0 °F 89% 29.84 in 10.0 mi NW 6.9 mph - N/A   Overcast
4:53 AM 54.0 °F 51.1 °F 90% 29.85 in 10.0 mi NW 8.1 mph - N/A   Overcast
5:53 AM 53.1 °F 50.0 °F 89% 29.86 in 10.0 mi NW 8.1 mph - N/A   Overcast
6:53 AM 54.0 °F 50.0 °F 86% 29.87 in 10.0 mi Calm Calm - N/A   Mostly Cloudy
7:53 AM 55.0 °F 48.9 °F 80% 29.88 in 10.0 mi WNW 3.5 mph - N/A   Mostly Cloudy
8:53 AM 57.0 °F 50.0 °F 77% 29.90 in 10.0 mi Calm Calm - N/A   Mostly Cloudy
9:53 AM 59.0 °F 48.9 °F 69% 29.91 in 10.0 mi NNW 6.9 mph - N/A   Scattered Clouds
10:53 AM 64.9 °F 46.0 °F 50% 29.90 in 10.0 mi North 6.9 mph - N/A   Scattered Clouds
11:53 AM 66.9 °F 45.0 °F 45% 29.89 in 10.0 mi North - - N/A   Scattered Clouds
12:53 PM 70.0 °F 45.0 °F 41% 29.87 in 10.0 mi North 10.4 mph 16.1 mph N/A   Scattered Clouds
1:53 PM 71.1 °F 43.0 °F 36% 29.84 in 10.0 mi NNW 6.9 mph - N/A   Scattered Clouds
2:53 PM 72.0 °F 42.1 °F 34% 29.83 in 10.0 mi NW 10.4 mph - N/A   Partly Cloudy
3:53 PM 73.9 °F 42.1 °F 32% 29.81 in 10.0 mi NW 11.5 mph 18.4 mph N/A   Scattered Clouds
4:53 PM 69.1 °F 46.9 °F 45% 29.83 in 10.0 mi WSW 12.7 mph - N/A   Scattered Clouds
5:30 PM 68.0 °F 48.9 °F 50% 30.02 in 10.0 mi WSW 13.8 mph - N/A Thunderstorm Thunderstorm
5:53 PM 66.9 °F 46.0 °F 47% 29.89 in 10.0 mi NNE 20.7 mph 26.5 mph N/A Thunderstorm Thunderstorm
6:53 PM 59.0 °F 46.0 °F 62% 29.92 in 10.0 mi SSW 5.8 mph - 0.06 in   Mostly Cloudy
7:04 PM 59.0 °F 46.9 °F 64% 30.09 in 10.0 mi Calm Calm - N/A   Mostly Cloudy
7:53 PM 57.0 °F 46.9 °F 69% 29.94 in 10.0 mi SSE 6.9 mph - 0.01 in   Clear
8:53 PM 59.0 °F 46.9 °F 64% 29.93 in 10.0 mi SSW 10.4 mph - N/A   Clear
9:53 PM 57.9 °F 48.0 °F 70% 29.93 in 10.0 mi South 9.2 mph - N/A   Clear
10:53 PM 57.9 °F 46.9 °F 67% 29.92 in 10.0 mi SSW 6.9 mph - N/A   Clear
11:53 PM 57.0 °F 46.9 °F 69% 29.92 in 10.0 mi South 8.1 mph - N/A   Clear